RACE ROCKS, current weather conditions

sailwx.info

Wind from 260 at 11 knots

Air temperature 11.3° C
Dewpoint 9.7° C

Last reported at 2020-Jul-13 16:00 UTC.
Time now 2020-Jul-13 18:03 UTC

Location: N 48°18' W 123°32'.
View on Google Maps.

See reports from other nearby stations

  
Tides and Currents Weather Stations Pressure Air Temp Water Temp Dewpoint Dewpoint Depression Visibility Wind Speed Wind Dir Waves Ship Positions
date/time (UTC)wind fromknots sea level pressurealtimeterstation pressurevisibilityair tempwater tempwave heightnotes
2020-Jul-13 16:00 260 11 11.3
2020-Jul-13 15:00 260 9 11.0
2020-Jul-13 14:00 260 8 10.6
2020-Jul-13 13:00 280 8 11.5
2020-Jul-13 12:00 280 13 11.9
2020-Jul-13 11:00 270 15 11.7
2020-Jul-13 10:00 270 17 11.6
2020-Jul-13 09:00 270 17 11.4
2020-Jul-13 08:00 280 20 11.8
2020-Jul-13 07:00 270 20 11.8
2020-Jul-13 06:00 280 24 12.2
2020-Jul-13 05:00 280 24 11.6
2020-Jul-13 04:00 280 26 12.2
2020-Jul-13 03:00 280 28 12.7
2020-Jul-13 02:00 280 29 14.0
2020-Jul-13 01:00 280 27 14.3
2020-Jul-13 00:00 280 27 14.0
2020-Jul-12 23:00 280 27 14.0
2020-Jul-12 22:00 280 27 13.8
2020-Jul-12 21:00 280 22 14.1
2020-Jul-12 20:00 280 20 12.4
2020-Jul-12 19:00 280 21 13.0
2020-Jul-12 18:00 280 18 12.4
2020-Jul-12 17:00 280 17 12.4
2020-Jul-12 16:00 280 14 12.0
2020-Jul-12 15:00 280 15 12.0
2020-Jul-12 14:00 290 22 12.3
2020-Jul-12 13:00 290 19 12.7
2020-Jul-12 12:00 280 22 11.3
2020-Jul-12 11:00 280 24 11.5
2020-Jul-12 10:00 270 17 11.2
2020-Jul-12 09:00 260 14 11.1
2020-Jul-12 08:00 280 15 12.0
2020-Jul-12 07:00 260 12 11.3
2020-Jul-12 06:00 280 4 12.7
2020-Jul-12 05:00 090 1 12.5
2020-Jul-12 04:00 010 7 13.8
2020-Jul-12 03:00 280 1 13.0
2020-Jul-12 02:00 190 2 13.6
2020-Jul-12 01:00 240 5 13.4
2020-Jul-12 00:00 240 6 13.8
2020-Jul-11 23:00 230 5 12.5
2020-Jul-11 22:00 250 6 12.4
2020-Jul-11 21:00 230 8 13.1
2020-Jul-11 20:00 220 6 13.0
2020-Jul-11 19:00 260 8 12.9
2020-Jul-11 18:00 250 11 12.3